TimeEDT,TemperatureF,Dew PointF,Humidity,Sea Level PressureIn,VisibilityMPH,Wind Direction,Wind SpeedMPH,Gust SpeedMPH,PrecipitationIn,Events,Conditions,WindDirDegrees,DateUTC
12:51 AM,72.0,69.1,91,30.18,10.0,Calm,Calm,-,N/A,,Clear,0,2013-07-15 04:51:00
1:51 AM,71.1,68.0,90,30.17,10.0,NNW,3.5,-,N/A,,Clear,330,2013-07-15 05:51:00
2:51 AM,70.0,66.9,90,30.17,10.0,NNW,4.6,-,N/A,,Partly Cloudy,330,2013-07-15 06:51:00
3:51 AM,70.0,66.9,90,30.17,10.0,NW,4.6,-,N/A,,Scattered Clouds,320,2013-07-15 07:51:00
4:51 AM,70.0,66.9,90,30.17,10.0,NW,5.8,-,N/A,,Clear,320,2013-07-15 08:51:00
5:51 AM,71.1,68.0,90,30.17,10.0,NW,8.1,-,N/A,,Clear,310,2013-07-15 09:51:00
6:51 AM,73.9,69.1,85,30.17,10.0,NNW,5.8,-,N/A,,Partly Cloudy,330,2013-07-15 10:51:00
7:51 AM,78.1,70.0,76,30.18,10.0,NW,8.1,-,N/A,,Partly Cloudy,320,2013-07-15 11:51:00
8:51 AM,80.1,70.0,71,30.18,10.0,NNW,5.8,-,N/A,,Clear,330,2013-07-15 12:51:00
9:51 AM,84.9,70.0,61,30.17,10.0,NNW,9.2,-,N/A,,Clear,330,2013-07-15 13:51:00
10:51 AM,84.9,66.9,55,30.16,10.0,NNW,6.9,-,N/A,,Clear,330,2013-07-15 14:51:00
11:51 AM,86.0,66.0,51,30.16,10.0,NNW,10.4,-,N/A,,Clear,330,2013-07-15 15:51:00
12:51 PM,87.1,66.9,51,30.14,10.0,WNW,6.9,-,N/A,,Clear,290,2013-07-15 16:51:00
1:51 PM,89.1,66.9,48,30.12,10.0,NW,9.2,-,N/A,,Partly Cloudy,310,2013-07-15 17:51:00
2:51 PM,91.0,68.0,47,30.11,10.0,NW,8.1,-,N/A,,Scattered Clouds,320,2013-07-15 18:51:00
3:51 PM,91.0,68.0,47,30.09,10.0,NW,10.4,-,N/A,,Partly Cloudy,320,2013-07-15 19:51:00
4:51 PM,91.0,66.0,44,30.08,10.0,NW,9.2,-,N/A,,Clear,310,2013-07-15 20:51:00
5:51 PM,90.0,66.9,46,30.07,10.0,NNW,6.9,-,N/A,,Clear,330,2013-07-15 21:51:00
6:51 PM,89.1,68.0,50,30.07,10.0,Calm,Calm,-,N/A,,Partly Cloudy,0,2013-07-15 22:51:00
7:51 PM,86.0,68.0,55,30.08,10.0,Variable,3.5,-,N/A,,Partly Cloudy,0,2013-07-15 23:51:00
8:51 PM,82.9,66.0,56,30.09,10.0,WNW,3.5,-,N/A,,Clear,300,2013-07-16 00:51:00
9:51 PM,79.0,66.9,66,30.10,10.0,NW,5.8,-,N/A,,Clear,310,2013-07-16 01:51:00
10:51 PM,77.0,64.9,66,30.11,10.0,NW,6.9,-,N/A,,Scattered Clouds,310,2013-07-16 02:51:00
11:51 PM,75.9,64.0,67,30.11,10.0,NW,8.1,-,N/A,,Clear,310,2013-07-16 03:51:00